Location: La Malmaison
(49.5158°N, 3.9803°E)
Time: 11:56:33
(UTC+00:00)

Daily predictions for brighter satellites

Satellite Brightness Start Highest point End
(mag) Time Altitude Azimuth Time Altitude Azimuth Time Altitude Azimuth
Cosmos 1842 Rocket 3.6 16:19:38 10° S 16:23:57 88° ESE 16:28:19 10° N
Landsat 5 4.1 16:21:07 10° NNE 16:25:20 43° E 16:29:38 10° S
CZ-4C R/B 3.6 16:21:56 10° NNE 16:25:24 41° E 16:28:51 10° S
ISS -3.4 16:22:40 10° SW 16:25:59 59° SSE 16:29:19 10° ENE
Cosmos 1805 Rocket 3.9 16:23:36 10° N 16:27:56 47° ENE 16:32:12 10° SSE
ERS-2 4.2 16:27:24 10° ENE 16:28:39 11° E 16:29:55 10° ESE
CZ-4B DEB 4.2 16:24:28 10° SSE 16:29:57 81° ENE 16:35:27 10° NNW
PAYLOAD B 4.2 16:26:29 10° SSE 16:32:02 72° ENE 16:37:36 10° NNW
Okean-O 4.4 16:30:25 10° ENE 16:32:07 12° NE 16:33:50 10° NNE
Radarsat Rocket 4.1 16:26:32 10° SSE 16:32:35 72° ENE 16:39:23 10° NNW
Cosmos 2333 Rocket 2.9 16:27:02 10° SW 16:32:37 54° NW 16:38:11 10° NNE
Cosmos 1666 Rocket 4.4 16:30:40 10° N 16:34:31 28° ENE 16:38:21 10° SE
BREEZE-M R/B 4.2 16:27:13 10° WNW 16:34:35 57° SSW 16:37:05 10° SE
Meteor 2-2 Rocket 4.4 16:29:33 10° S 16:35:30 87° E 16:41:23 10° NNE
Cosmos 2278 Rocket 2.8 16:30:34 10° NNW 16:36:12 66° WSW 16:41:49 10° SSE
NOSS 0 Rocket 4.0 16:31:04 10° SSW 16:37:18 76° ESE 16:43:32 10° NNE
Okean O Rocket 1.9 16:33:13 10° SE 16:37:21 45° ENE 16:41:33 10° N
PSLV R/B 4.0 16:34:09 10° SSE 16:38:16 82° WSW 16:42:22 10° NNW
COSMOS 2428 3.2 16:33:09 10° SW 16:38:49 61° WNW 16:44:31 10° NNE
Cosmos 482 Debris 2.7 16:38:13 10° WNW 16:40:00 45° NNE 16:41:26 13° E
Cosmos 405 3.8 16:37:16 10° SSW 16:40:40 53° WNW 16:44:06 10° N
Nadezhda 1 Rocket 4.1 16:35:15 10° S 16:41:34 72° E 16:47:58 10° NNE
Cosmos 389 Rocket 3.2 16:40:15 10° SSE 16:43:18 31° E 16:46:21 10° NNE
CZ-4B R/B 3.0 16:41:51 12° ENE 16:43:24 15° E 16:45:19 10° SE
Cosmos 2360 Rocket 4.0 16:41:04 10° W 16:45:36 24° NW 16:50:09 10° NNE
AQUARIUS 4.3 16:41:57 10° SSE 16:46:20 54° ENE 16:50:44 10° N
BREEZE-M DEB (TANK) 2.3 16:45:18 10° SW 16:47:29 43° SSE 16:49:13 14° E
Cosmos 2219 Rocket 3.2 16:45:59 10° SW 16:51:22 44° NW 16:56:47 10° NNE
BREEZE-M DEB (TANK) 4.4 16:48:41 10° WSW 16:52:49 83° SSE 17:06:06 13° E
H-2A R/B 2.0 16:48:42 10° NNE 16:52:51 61° ESE 16:57:04 10° S
Cosmos 1356 3.4 16:52:03 10° N 16:55:27 57° ENE 16:58:50 10° SSE
YAOGAN 6 2.8 16:52:47 10° S 16:56:26 76° WSW 17:00:04 10° NNW
Cosmos 962 Rocket 4.5 16:50:57 10° N 16:57:16 69° E 17:03:26 10° SSE
NOAA 6 4.5 16:52:40 10° S 16:57:47 68° WSW 17:02:56 10° NNW
Cosmos 44 3.5 16:54:34 10° NW 16:59:48 64° NE 17:05:10 10° SE
Cosmos 2154 Rocket 4.3 16:53:41 10° NNW 17:00:01 75° W 17:06:21 10° S
Cosmos 1867 3.9 16:57:03 10° SSW 17:02:15 49° ESE 17:06:42 14° NE
Cosmos 1633 Rocket 3.4 16:58:23 10° N 17:02:35 42° ENE 17:06:44 10° SSE
USA 267 3.4 16:56:46 10° E 17:03:08 58° NNE 17:09:32 10° WNW
CZ-4B R/B 3.1 16:58:42 10° SSE 17:04:02 89° SW 17:09:23 10° NNW
Cosmos 1125 Rocket 4.3 16:59:01 10° NNW 17:04:07 57° WSW 17:09:13 10° S
CZ-2D R/B 4.3 17:01:32 10° ESE 17:04:36 24° ENE 17:07:42 10° NNE
Cosmos 2237 Rocket 2.2 16:59:38 10° SSW 17:05:17 87° WNW 17:10:58 10° NNE
SL-16 R/B 4.5 17:04:02 10° NW 17:06:34 13° NNW 17:09:06 10° N
Cosmos 2221 4.0 17:02:31 10° SW 17:06:34 38° WNW 17:10:38 10° N
CORIOLIS 4.1 17:01:17 10° SSE 17:06:41 81° ENE 17:12:10 10° NNW
NOAA 11 4.1 17:02:04 10° SSE 17:07:26 64° ENE 17:12:49 10° N
Feng Yun 1-1 Rocket 4.4 17:03:14 10° SE 17:08:46 51° ENE 17:14:12 10° N
Meteor 1-25 Rocket 4.3 17:04:17 10° N 17:09:49 55° ENE 17:15:23 10° SSE
Lacrosse 5 rocket 2.2 17:07:41 10° SSW 17:10:49 27° SE 17:12:16 20° E
Meteor 2-12 Rocket 4.4 17:05:32 10° N 17:11:45 86° E 17:17:52 10° S
Cosmos 2341 Rocket 4.0 17:07:16 10° N 17:13:36 80° E 17:19:56 10° SSE
Cosmos 2369 Rocket 2.8 17:10:09 10° NNW 17:15:23 35° NE 17:20:02 12° ESE
H-2A R/B 3.8 17:12:01 10° S 17:16:07 43° W 17:20:06 10° NNW
USA 281 3.5 17:12:36 10° ESE 17:18:45 45° NE 17:24:57 10° NNW
Helios 1A Rocket 3.8 17:18:58 20° E 17:20:34 26° ENE 17:23:57 10° N
CZ-2C R/B 3.6 17:17:31 10° SE 17:21:57 32° ENE 17:26:14 10° N
Cosmos 1980 4.1 17:18:39 10° SW 17:24:18 62° WNW 17:29:57 10° NNE
Cosmos 864 Rocket 4.5 17:19:06 10° N 17:25:22 61° ENE 17:31:33 10° SSE
BREEZE-M DEB (TANK) 2.8 17:23:59 10° SW 17:26:06 28° SSE 17:26:19 27° SE
Cosmos 2285 Rocket 3.9 17:20:11 10° NNW 17:26:38 77° ENE 17:32:59 10° SSE
SL-8 Rocket 3.9 17:20:31 10° N 17:26:46 77° E 17:33:03 10° SSE
FengYun 1-2 T 4.3 17:23:43 10° SSE 17:29:16 84° WSW 17:34:49 10° NNW
Cosmos 1943 Rocket 2.1 17:27:01 10° NNW 17:32:34 64° ENE 17:38:06 10° SE
Cosmos 1959 Rocket 4.5 17:27:59 10° N 17:34:22 73° E 17:40:42 10° SSE
SAR-Lupe-4 4.1 17:35:12 36° E 17:35:17 36° E 17:38:37 10° SSE
YAOGAN 1 3.1 17:36:42 30° E 17:37:43 34° ENE 17:41:38 10° N
CZ-4 R/B 1.7 17:39:48 36° E 17:40:29 39° ENE 17:44:15 10° N
Cosmos 1470 Rocket 3.5 17:36:46 10° N 17:41:05 59° ENE 17:45:20 10° SSE
Cosmos 1821 Rocket 4.4 17:35:25 10° N 17:41:12 38° ENE 17:47:00 10° SE
ARGOS 4.0 17:42:12 28° ENE 17:42:12 28° ENE 17:46:32 10° N
Cosmos 2181 Rocket 4.0 17:37:06 10° S 17:43:31 80° E 17:49:54 10° NNE
Cosmos 773 Rocket 4.1 17:38:27 10° S 17:43:34 55° ESE 17:46:28 25° NE
Cosmos 1939 Rocket 2.7 17:42:42 10° SSE 17:46:34 89° ENE 17:50:31 10° NNW
Cosmos 2297 4.1 17:41:20 10° NNW 17:46:58 66° WSW 17:52:37 10° SSE
IRS-1C Rocket 4.0 17:43:48 10° SSE 17:49:05 80° ENE 17:54:23 10° NNW
COSMO-SKYMED 1 2.5 17:47:07 25° NNE 17:49:33 61° ESE 17:53:50 10° S
Cosmos 1515 Rocket 3.7 17:46:28 10° SSE 17:50:38 46° E 17:51:09 44° ENE
Meteor 1-4 Rocket 2.8 17:47:29 10° S 17:50:34 48° SE 17:50:34 48° SE
SAR-Lupe-1 4.2 17:52:40 53° ESE 17:52:40 53° ESE 17:55:56 10° S
USA 81 4.2 17:47:58 10° N 17:53:16 76° W 17:58:31 10° S
TELKOM 3 4.2 17:50:42 10° W 17:52:41 43° W 17:52:41 43° W
Cosmos 1606 4.2 17:51:36 10° SW 17:55:15 37° WNW 17:58:54 10° N
SL-16 R/B 2.1 17:49:44 10° SSW 17:55:24 87° ESE 17:59:03 23° NNE
Cosmos 783 Rocket 4.5 17:51:55 10° SSW 17:57:14 86° WNW 18:00:53 21° NNE
SL-24 DEB 4.2 17:54:55 10° N 17:59:41 67° E 18:04:22 10° S
Cosmos 1151 Rocket 3.1 17:55:44 10° SSW 18:00:01 76° WNW 18:03:28 15° N
H-2A R/B 2.2 17:59:31 33° ESE 18:01:28 48° ENE 18:06:24 10° N
ERS-2 2.4 18:00:54 29° N 18:02:38 67° WNW 18:06:16 10° SSW
ISS -3.4 17:59:30 10° W 18:02:36 58° NNW 18:02:36 58° NNW
SL-08 R/B 4.3 17:58:28 10° N 18:04:39 76° E 18:10:46 10° SSE
Okean-O 2.5 18:03:25 10° SSE 18:07:51 78° ENE 18:12:18 10° NNW
X-37B 3.3 18:07:53 10° SSW 18:08:23 12° S 18:08:23 12° S
Cosmos 2263 4.1 18:05:04 10° NNW 18:10:38 60° ENE 18:11:55 48° ESE
Cosmos 1933 Rocket 3.4 18:07:02 10° N 18:11:32 83° E 18:16:00 10° S
USA 215 3.2 18:09:24 39° ENE 18:11:56 66° SE 18:18:25 10° SW
TIMED 4.4 18:09:00 10° SSW 18:13:09 69° SE 18:13:09 69° SE
Okean O Rocket 4.1 18:10:30 10° SW 18:13:55 22° W 18:17:23 10° NW
Cosmos 1328 Rocket 4.0 18:11:12 10° SSW 18:15:28 61° WNW 18:18:28 19° N
CZ-4B R/B 2.9 18:15:00 28° NW 18:15:45 32° WNW 18:18:34 10° SW
Meteor 1-14 Rocket 4.4 18:11:35 10° NNW 18:17:33 82° W 18:23:32 10° S
Cosmos 44 Rocket 4.0 18:12:56 10° NNW 18:17:18 42° NNE 18:17:18 42° NNE
Cosmos 1782 3.2 18:24:03 10° SSW 18:27:57 59° WNW 18:28:09 58° WNW
CSL-04 Debris 4.0 18:30:38 47° SSE 18:32:16 79° ENE 18:37:48 10° NNW
Cosmos 1656 Rocket 3.6 18:29:17 10° NNW 18:34:39 68° NE 18:34:39 68° NE
Cosmos 1538 Rocket 4.0 18:36:01 10° SSW 18:41:23 85° WNW 18:41:40 80° N
Cosmos 489 Rocket 4.5 18:36:39 10° SSW 18:42:51 79° WNW 18:45:07 42° NNE
USA 267 3.3 18:44:00 45° SSE 18:46:06 71° SW 18:52:38 10° WNW
Meteor 1-5 Rocket 4.3 18:40:41 10° NNW 18:46:39 79° W 18:50:44 21° S
NOSS 3-3 (A) 4.4 18:41:23 10° NW 18:48:45 74° NE 18:50:00 63° E
NOSS 3-3 (C) 4.4 18:41:29 10° NW 18:48:50 73° NE 18:50:03 63° E
Lacrosse 5 rocket 3.1 18:46:10 10° WSW 18:47:55 26° W 18:47:55 26° W
Cosmos 2237 Rocket 4.2 18:45:55 10° W 18:50:11 22° NW 18:53:22 14° N
Cosmos 2239 Rocket 4.4 18:44:10 10° N 18:50:22 86° W 18:53:42 29° S
Cosmos 1603 4.4 18:44:52 10° SSW 18:48:33 41° S 18:48:33 41° S
CSL-04 Rocket 3.6 18:52:18 77° W 18:52:18 77° W 18:57:32 10° NNW
MOS 1 Rocket 3.8 18:53:09 67° NNW 18:53:42 73° WNW 18:59:06 10° SSW
Helios 1A Rocket 4.5 18:55:12 33° WSW 18:55:37 34° W 18:59:19 10° NNW
Cosmos 1943 4.3 18:52:32 10° SSW 18:55:35 33° S 18:55:35 33° S
Cosmos 2369 Rocket 3.0 18:54:09 10° NW 18:59:37 49° WSW 19:01:56 31° SSW
CZ-2C R/B 4.3 18:57:04 10° SSW 19:01:47 38° W 19:06:19 10° NNW
USA 281 4.1 18:56:59 10° S 19:03:15 47° WSW 19:09:34 10° NW
YAOGAN 1 4.4 19:13:52 29° W 19:13:52 29° W 19:17:38 10° NW
CZ-4 R/B 3.8 19:15:49 21° W 19:15:49 21° W 19:18:48 10° NW
Cosmos 1943 Rocket 4.3 19:11:31 10° NW 19:15:50 24° WSW 19:20:10 10° SSW
Nadezhda 3 Rocket 4.4 19:10:09 10° SSW 19:16:27 62° WNW 19:19:08 35° N
ARGOS 4.3 19:23:42 38° NW 19:23:42 38° NW 19:27:18 10° NNW
SL-16 R/B 4.1 19:35:51 10° W 19:40:17 23° NW 19:40:57 22° NNW
H-2A R/B 3.9 19:40:09 26° WSW 19:41:05 28° W 19:45:31 10° NW
USA 215 4.1 19:56:45 45° WNW 19:56:45 45° WNW 20:01:21 10° W
